Banff, Canada 16 day weather forecast

Slopes altitude range 1630 m - 2730m

Number of lifts: 26 Pistes: 120km

In some cases the lift and piste totals shown are for the ski domain (e.g. Three Valleys) rather than individual resort (e.g. Courchevel)

Overview

The 16 day weather forecast is fully updated 4 times every day.

    • Wed 26 JUN 2019
    • Wed 26
    • 3C 6C
    • Thu 27 JUN 2019
    • Thu 27
    • 4C 7C
    • Fri 28 JUN 2019
    • Fri 28
    • 4C 6C
    • Sat 29 JUN 2019
    • Sat 29
    • 2C 5C
    • Sun 30 JUN 2019
    • Sun 30
    • 2C 4C
    • Mon 01 JUL 2019
    • Mon 01
    • 4C 5C
    • Tue 02 JUL 2019
    • Tue 02
    • 7C 8C
    • Wed 03 JUL 2019
    • Wed 03
    • 5C 6C
    • Thu 04 JUL 2019
    • Thu 04
    • 3C 4C
    • Fri 05 JUL 2019
    • Fri 05
    • 5C 7C
    • Sat 06 JUL 2019
    • Sat 06
    • 7C 8C
    • Sun 07 JUL 2019
    • Sun 07
    • 6C 8C
    • Mon 08 JUL 2019
    • Mon 08
    • 9C 10C
    • Tue 09 JUL 2019
    • Tue 09
    • 11C 13C
    • Wed 10 JUL 2019
    • Wed 10
    • 9C 12C
    • Thu 11 JUL 2019
    • Thu 11
    • 7C 10C

Date:

Time Type 0°C level Temp Chill Snow Cloud Speed Gust Dir Press
3:00 3072m 7°C 7_2 0cm 97% 2mph 2mph 1010mB
6:00 2972m 6°C 6_3 0cm 98% 3mph 3mph 1012mB
9:00 2882m 4°C 4_2 0cm 100% 2mph 2mph 1013mB
12:00 2847m 6°C 6_2 0cm 99% 2mph 2mph 1014mB
15:00 2916m 7°C 7_3 0cm 95% 3mph 3mph 1014mB
18:00 2977m 12°C 12_3 0cm 76% 3mph 5mph 1012mB
21:00 3253m 12°C 12_1 0cm 21% 1mph 8mph 1011mB
0:00 3383m 12°C 12_2 0cm 50% 2mph 8mph 1010mB
3:00 3409m 11°C 11_2 0cm 78% 2mph 2mph 1010mB
6:00 3362m 6°C 6_3 0cm 79% 3mph 3mph 1012mB
9:00 3355m 5°C 5_3 0cm 92% 3mph 3mph 1013mB
12:00 3176m 7°C 7_3 0cm 96% 3mph 4mph 1013mB
15:00 3355m 9°C 9_3 0cm 100% 3mph 3mph 1013mB
18:00 3288m 11°C 11_6 0cm 100% 6mph 6mph 1013mB
21:00 3339m 10°C 10_4 0cm 100% 4mph 5mph 1013mB
0:00 3338m 10°C 10_3 0cm 73% 3mph 10mph 1011mB
3:00 3356m 10°C 10_3 0cm 30% 3mph 4mph 1011mB
6:00 3268m 6°C 6_4 0cm 31% 4mph 4mph 1012mB
9:00 3111m 5°C 5_4 0cm 100% 4mph 4mph 1012mB
12:00 2954m 6°C 6_5 0cm 90% 5mph 5mph 1012mB
15:00 2862m 8°C 8_6 0cm 66% 6mph 7mph 1011mB
18:00 2939m 11°C 11_7 0cm 37% 7mph 14mph 1011mB
21:00 3070m 11°C 11_11 0cm 17% 11mph 21mph 1010mB
0:00 3188m 11°C 11_11 0cm 9% 11mph 20mph 1010mB
3:00 3168m 10°C 10_4 0cm 6% 4mph 11mph 1011mB
6:00 3089m 5°C 5_4 0cm 4% 4mph 4mph 1013mB
9:00 2996m 4°C 4_5 0cm 81% 5mph 5mph 1015mB
12:00 2796m 5°C 5_5 0cm 50% 5mph 5mph 1016mB
15:00 2631m 7°C 7_5 0cm 2% 5mph 6mph 1016mB
18:00 2729m 8°C 8_7 0cm 36% 7mph 16mph 1015mB
21:00 2942m 8°C 8_8 0cm 98% 8mph 17mph 1014mB
0:00 3093m 8°C 8_6 0cm 98% 6mph 12mph 1015mB
3:00 3059m 9°C 9_4 0cm 61% 4mph 3mph 1016mB
6:00 3020m 4°C 4_3 0cm 80% 3mph 3mph 1020mB
9:00 2963m 3°C 3_3 0cm 32% 3mph 3mph 1020mB
12:00 2936m 4°C 4_2 0cm 17% 2mph 2mph 1021mB
15:00 2891m 9°C 9_2 0cm 0% 2mph 2mph 1020mB
18:00 3016m 12°C 12_2 0cm 36% 2mph 3mph 1019mB
21:00 3081m 11°C 11_1 0cm 100% 1mph 2mph 1017mB
0:00 3286m 11°C 11_1 0cm 100% 1mph 3mph 1017mB
3:00 3320m 10°C 10_2 0cm 91% 2mph 3mph 1017mB
6:00 3343m 5°C 5_1 0cm 46% 1mph 2mph 1020mB
9:00 3346m 4°C 4_2 0cm 0% 2mph 2mph 1020mB
12:00 3366m 5°C 5_2 0cm 0% 2mph 2mph 1019mB
15:00 3389m 12°C 12_2 0cm 0% 2mph 2mph 1017mB
18:00 3430m 17°C 17_3 0cm 1% 3mph 4mph 1016mB
21:00 3672m 17°C 17_4 0cm 1% 4mph 4mph 1014mB
0:00 3668m 16°C 16_3 0cm 35% 3mph 3mph 1012mB
3:00 3656m 13°C 13_3 0cm 100% 3mph 3mph 1012mB
6:00 3599m 8°C 8_2 0cm 95% 2mph 2mph 1014mB
9:00 3580m 7°C 7_1 0cm 100% 1mph 1mph 1013mB
12:00 3531m 8°C 8_0 0cm 100% 0mph 1mph 1012mB
15:00 3488m 12°C 12_2 0cm 100% 2mph 1mph 1011mB
18:00 3516m 17°C 17_2 0cm 100% 2mph 3mph 1009mB
21:00 3733m 17°C 17_3 0cm 89% 3mph 6mph 1006mB
0:00 3707m 15°C 15_2 0cm 95% 2mph 4mph 1005mB
3:00 3624m 12°C 12_3 0cm 100% 3mph 4mph 1007mB
6:00 3246m 6°C 6_13 0cm 100% 13mph 19mph 1010mB
9:00 3141m 5°C 5_3 0cm 100% 3mph 4mph 1012mB
12:00 3261m 6°C 6_4 0cm 100% 4mph 4mph 1012mB
15:00 2225m 5°C 5_3 0cm 100% 3mph 6mph 1014mB
18:00 2223m 5°C 5_1 0cm 100% 1mph 4mph 1015mB
21:00 2292m 4°C 4_0 0cm 100% 0mph 1mph 1016mB
0:00 2297m 4°C 4_2 0cm 100% 2mph 3mph 1016mB
3:00 2491m 4°C 4_3 0cm 100% 3mph 4mph 1017mB
6:00 2623m 4°C 4_3 0cm 100% 3mph 4mph 1018mB
9:00 2562m 4°C 4_3 0cm 100% 3mph 3mph 1017mB
12:00 2568m 4°C 4_2 0cm 100% 2mph 3mph 1018mB
15:00 2607m 7°C 7_2 0cm 100% 2mph 2mph 1017mB
18:00 2896m 9°C 9_3 0cm 100% 3mph 3mph 1017mB
21:00 3136m 8°C 8_2 0cm 100% 2mph 3mph 1016mB
0:00 3408m 8°C 8_1 0cm 94% 1mph 3mph 1014mB
3:00 3701m 10°C 10_3 0cm 74% 3mph 4mph 1014mB
6:00 3753m 6°C 6_2 0cm 55% 2mph 2mph 1015mB
9:00 3768m 5°C 5_4 0cm 63% 4mph 4mph 1014mB
12:00 3714m 7°C 7_5 0cm 81% 5mph 5mph 1014mB
15:00 3727m 14°C 14_2 0cm 69% 2mph 3mph 1013mB
18:00 3698m 18°C 18_3 0cm 47% 3mph 4mph 1012mB
21:00 3678m 17°C 17_4 0cm 43% 4mph 7mph 1011mB
0:00 3723m 16°C 16_4 0cm 61% 4mph 7mph 1011mB
Afternoon 0mm 0 3484m 8°C 8_1 0cm 100% 1mph 1mph 1018mB
Morning 0.354167mm 0.8125 3573m 10°C 10_3 0cm 100% 3mph 4mph 1016mB
Afternoon 0.0208333mm 0 3529m 8°C 8_2 0cm 11% 2mph 2mph 1020mB
Morning 0.333333mm 1.0625 3904m 15°C 15_4 0cm 99% 4mph 4mph 1016mB
Afternoon 0mm 0 4216m 10°C 10_5 0cm 97% 5mph 5mph 1015mB
Morning 0.3125mm 0.9375 4367m 20°C 20_5 0cm 76% 5mph 7mph 1007mB
Afternoon 0mm 0 4459m 13°C 13_6 0cm 83% 6mph 6mph 1008mB
Morning 0mm 0 4073m 23°C 23_11 0cm 17% 11mph 24mph 1005mB
Afternoon 0mm 0 3798m 12°C 12_7 0cm 61% 7mph 7mph 1010mB
Morning 0mm 0 3797m 20°C 20_15 0cm 1% 15mph 25mph 1007mB
Afternoon 0mm 0 3288m 10°C 10_7 0cm 54% 7mph 7mph 1013mB
Morning 0mm 0 3648m 19°C 19_12 0cm 62% 12mph 19mph 1010mB

16 day outlook at a glance

Forecast issued: 6/26/2019 7:48:32 AM

Chat

Your comments and questions. In a resort? Let us know what it's like!


Characters left 250

For terms and conditions see Readers Comments on the Cookie and privacy policy page.